| time (UTC) | temp F | wind direction | speed MPH | gust MPH | rain 1hr in | rain 24hr in | rain mn in | humidity % | barometer mb |
| 20260901034540 | 86 | 30 | 5.0 | 11.0 | 0.00 | 0.00 | 0.00 | 70 | 1011.0 |
| 20260901034028 | 86 | 265 | 6.0 | 11.0 | 0.00 | 0.00 | 0.00 | 70 | 1011.0 |
| 20260901033539 | 86 | 13 | 5.0 | 9.0 | 0.00 | 0.00 | 0.00 | 71 | 1011.2 |
| 20260901033019 | 85 | 76 | 4.0 | 12.0 | 0.00 | 0.00 | 0.00 | 71 | 1011.2 |
| 20260901032518 | 85 | 63 | 7.0 | 12.0 | 0.00 | 0.00 | 0.00 | 72 | 1011.0 |
| 20260901032028 | 85 | 53 | 5.0 | 9.0 | 0.00 | 0.00 | 0.00 | 72 | 1011.1 |
| 20260901031533 | 85 | 49 | 6.0 | 13.0 | 0.00 | 0.00 | 0.00 | 71 | 1011.2 |
| 20260901030527 | 86 | 68 | 5.0 | 11.0 | 0.00 | 0.00 | 0.00 | 70 | 1011.3 |
| 20260901030034 | 86 | 62 | 5.0 | 10.0 | 0.00 | 0.00 | 0.00 | 70 | 1011.4 |
| 20260901025516 | 86 | 94 | 4.0 | 9.0 | 0.00 | 0.00 | 0.00 | 68 | 1011.4 |
| 20260901025025 | 87 | 16 | 5.0 | 11.0 | 0.00 | 0.00 | 0.00 | 67 | 1011.3 |
| 20260901024553 | 87 | 41 | 5.0 | 11.0 | 0.00 | 0.00 | 0.00 | 67 | 1011.3 |
| 20260901024036 | 87 | 34 | 6.0 | 11.0 | 0.00 | 0.00 | 0.00 | 67 | 1011.4 |
| 20260901023517 | 87 | 77 | 5.0 | 13.0 | 0.00 | 0.00 | 0.00 | 67 | 1011.3 |
| 20260901023015 | 86 | 79 | 7.0 | 13.0 | 0.00 | 0.00 | 0.00 | 69 | 1011.4 |
| 20260901022524 | 86 | 19 | 6.0 | 12.0 | 0.00 | 0.00 | 0.00 | 69 | 1011.4 |
| 20260901022033 | 86 | 6 | 5.0 | 12.0 | 0.00 | 0.00 | 0.00 | 70 | 1011.5 |
| 20260901021514 | 85 | 66 | 6.0 | 12.0 | 0.00 | 0.00 | 0.00 | 70 | 1011.5 |
| 20260901021024 | 85 | 139 | 5.0 | 8.0 | 0.00 | 0.00 | 0.00 | 70 | 1011.5 |
| 20260901020526 | 85 | 31 | 5.0 | 11.0 | 0.00 | 0.00 | 0.00 | 70 | 1011.5 |
| 20260901020029 | 85 | 81 | 7.0 | 11.0 | 0.00 | 0.00 | 0.00 | 70 | 1011.6 |
| 20260901015540 | 85 | 19 | 5.0 | 9.0 | 0.00 | 0.00 | 0.00 | 70 | 1011.5 |
| 20260901015021 | 85 | 74 | 5.0 | 9.0 | 0.00 | 0.00 | 0.00 | 70 | 1011.6 |
| 20260901014530 | 86 | 354 | 5.0 | 11.0 | 0.00 | 0.00 | 0.00 | 70 | 1011.6 |
| 20260901014100 | 85 | 48 | 5.0 | 11.0 | 0.00 | 0.00 | 0.00 | 71 | 1011.6 |
| 20260901013522 | 85 | 63 | 6.0 | 10.0 | 0.00 | 0.00 | 0.00 | 71 | 1011.8 |
| 20260901013028 | 85 | 309 | 6.0 | 12.0 | 0.00 | 0.00 | 0.00 | 70 | 1011.8 |
| 20260901012517 | 85 | 56 | 5.0 | 12.0 | 0.00 | 0.00 | 0.00 | 70 | 1011.7 |
| 20260901012102 | 85 | 70 | 6.0 | 13.0 | 0.00 | 0.00 | 0.00 | 70 | 1011.8 |
| 20260901011521 | 86 | 15 | 8.0 | 13.0 | 0.00 | 0.00 | 0.00 | 68 | 1011.8 |
| 20260901011028 | 86 | 319 | 6.0 | 15.0 | 0.00 | 0.00 | 0.00 | 69 | 1011.8 |
| 20260901010538 | 86 | 84 | 8.0 | 15.0 | 0.00 | 0.00 | 0.00 | 68 | 1011.7 |
| 20260901010018 | 86 | 58 | 5.0 | 13.0 | 0.00 | 0.00 | 0.00 | 69 | 1011.7 |
| 20260901005528 | 86 | 15 | 7.0 | 13.0 | 0.00 | 0.00 | 0.00 | 69 | 1011.6 |
| 20260901005037 | 86 | 117 | 6.0 | 14.0 | 0.00 | 0.00 | 0.00 | 69 | 1011.6 |
| 20260901004541 | 86 | 46 | 8.0 | 14.0 | 0.00 | 0.00 | 0.00 | 69 | 1011.6 |
| 20260901004023 | 86 | 44 | 6.0 | 14.0 | 0.00 | 0.00 | 0.00 | 69 | 1011.4 |
| 20260901003533 | 86 | 31 | 6.0 | 14.0 | 0.00 | 0.00 | 0.00 | 70 | 1011.3 |
| 20260901003039 | 86 | 34 | 6.0 | 15.0 | 0.00 | 0.00 | 0.00 | 71 | 1011.3 |
| 20260901002519 | 85 | 76 | 8.0 | 15.0 | 0.00 | 0.00 | 0.00 | 71 | 1011.3 |
| 20260901002025 | 85 | 53 | 8.0 | 14.0 | 0.00 | 0.00 | 0.00 | 71 | 1011.3 |
| 20260901001537 | 85 | 103 | 7.0 | 16.0 | 0.00 | 0.00 | 0.00 | 71 | 1011.4 |
| 20260901001019 | 85 | 4 | 8.0 | 16.0 | 0.00 | 0.00 | 0.00 | 71 | 1011.4 |
| 20260901000524 | 85 | 2 | 9.0 | 14.0 | 0.00 | 0.00 | 0.00 | 70 | 1011.4 |
| 20260901000029 | 85 | 293 | 7.0 | 13.0 | 0.00 | 0.00 | 0.00 | 71 | 1011.2 |
| 20260831235539 | 85 | 46 | 5.0 | 13.0 | 0.00 | 0.00 | 0.00 | 72 | 1011.3 |
| 20260831235021 | 85 | 23 | 8.0 | 12.0 | 0.00 | 0.00 | 0.00 | 73 | 1011.3 |
| 20260831234527 | 85 | 22 | 7.0 | 12.0 | 0.00 | 0.00 | 0.00 | 73 | 1011.4 |
| 20260831234017 | 85 | 108 | 6.0 | 12.0 | 0.00 | 0.00 | 0.00 | 74 | 1011.4 |
| 20260831233527 | 85 | 13 | 6.0 | 12.0 | 0.00 | 0.00 | 0.00 | 74 | 1011.4 |
| 20260831232527 | 85 | 11 | 6.0 | 11.0 | 0.00 | 0.00 | 0.00 | 75 | 1011.4 |
| 20260831232036 | 84 | 41 | 6.0 | 12.0 | 0.00 | 0.00 | 0.00 | 75 | 1011.3 |
| 20260831231517 | 84 | 18 | 4.0 | 9.0 | 0.00 | 0.00 | 0.00 | 76 | 1011.3 |
| 20260831231026 | 84 | 111 | 4.0 | 10.0 | 0.00 | 0.00 | 0.00 | 76 | 1011.2 |
| 20260831230535 | 84 | 54 | 5.0 | 10.0 | 0.00 | 0.00 | 0.00 | 76 | 1011.2 |
| 20260831230041 | 84 | 72 | 5.0 | 10.0 | 0.00 | 0.00 | 0.00 | 77 | 1011.2 |
| 20260831225521 | 83 | 94 | 5.0 | 10.0 | 0.00 | 0.00 | 0.00 | 77 | 1011.1 |
| 20260831225025 | 83 | 35 | 5.0 | 9.0 | 0.00 | 0.00 | 0.00 | 78 | 1011.1 |
| 20260831224101 | 83 | 43 | 5.0 | 10.0 | 0.00 | 0.00 | 0.00 | 78 | 1011.1 |
| 20260831223521 | 83 | 134 | 3.0 | 10.0 | 0.00 | 0.00 | 0.00 | 79 | 1011.1 |
| 20260831223028 | 83 | 96 | 4.0 | 8.0 | 0.00 | 0.00 | 0.00 | 79 | 1011.1 |
| 20260831222537 | 83 | 65 | 5.0 | 8.0 | 0.00 | 0.00 | 0.00 | 79 | 1011.1 |
| 20260831222041 | 82 | 311 | 4.0 | 8.0 | 0.00 | 0.00 | 0.00 | 79 | 1011.1 |
| 20260831221528 | 82 | 91 | 4.0 | 8.0 | 0.00 | 0.00 | 0.00 | 79 | 1011.1 |
| 20260831221017 | 82 | 53 | 3.0 | 8.0 | 0.00 | 0.00 | 0.00 | 79 | 1011.0 |
| 20260831220522 | 82 | 63 | 3.0 | 8.0 | 0.00 | 0.00 | 0.00 | 79 | 1011.0 |
| 20260831220049 | 82 | 80 | 3.0 | 8.0 | 0.00 | 0.00 | 0.00 | 79 | 1010.9 |
| 20260831215600 | 82 | 75 | 4.0 | 11.0 | 0.00 | 0.00 | 0.00 | 79 | 1010.9 |
| 20260831215019 | 82 | 50 | 3.0 | 11.0 | 0.00 | 0.00 | 0.00 | 79 | 1010.7 |
| 20260831214040 | 82 | 37 | 4.0 | 10.0 | 0.00 | 0.00 | 0.00 | 78 | 1010.7 |
| 20260831213526 | 82 | 46 | 3.0 | 8.0 | 0.00 | 0.00 | 0.00 | 78 | 1010.6 |
| 20260831213031 | 82 | 49 | 4.0 | 8.0 | 0.00 | 0.00 | 0.00 | 77 | 1010.5 |
| 20260831212524 | 81 | 86 | 3.0 | 7.0 | 0.00 | 0.00 | 0.00 | 78 | 1010.5 |
| 20260831212034 | 81 | 62 | 3.0 | 7.0 | 0.00 | 0.00 | 0.00 | 78 | 1010.4 |
| 20260831211518 | 81 | 96 | 3.0 | 5.0 | 0.00 | 0.00 | 0.00 | 78 | 1010.4 |
| 20260831211027 | 81 | 293 | 2.0 | 5.0 | 0.00 | 0.00 | 0.00 | 78 | 1010.4 |
| 20260831210538 | 81 | 61 | 3.0 | 5.0 | 0.00 | 0.00 | 0.00 | 78 | 1010.3 |
| 20260831210018 | 81 | 51 | 3.0 | 6.0 | 0.00 | 0.00 | 0.00 | 79 | 1010.2 |
| 20260831205517 | 81 | 8 | 3.0 | 6.0 | 0.00 | 0.00 | 0.00 | 79 | 1010.2 |
| 20260831205022 | 81 | 76 | 2.0 | 3.0 | 0.00 | 0.00 | 0.00 | 79 | 1010.3 |
| 20260831204531 | 81 | 79 | 2.0 | 6.0 | 0.00 | 0.00 | 0.00 | 79 | 1010.2 |
| 20260831204041 | 81 | 87 | 2.0 | 6.0 | 0.00 | 0.00 | 0.00 | 79 | 1010.3 |
| 20260831203524 | 81 | 283 | 2.0 | 5.0 | 0.00 | 0.00 | 0.00 | 79 | 1010.2 |
| 20260831203032 | 81 | 48 | 3.0 | 6.0 | 0.00 | 0.00 | 0.00 | 79 | 1010.2 |
| 20260831202541 | 81 | 53 | 4.0 | 6.0 | 0.00 | 0.00 | 0.00 | 78 | 1010.2 |
| 20260831202024 | 81 | 59 | 3.0 | 6.0 | 0.00 | 0.00 | 0.00 | 78 | 1010.2 |
| 20260831201533 | 81 | 100 | 2.0 | 6.0 | 0.00 | 0.00 | 0.00 | 77 | 1010.2 |
| 20260831201040 | 81 | 67 | 2.0 | 6.0 | 0.00 | 0.00 | 0.00 | 77 | 1010.2 |
| 20260831200522 | 81 | 49 | 2.0 | 6.0 | 0.00 | 0.00 | 0.00 | 77 | 1010.0 |
| 20260831200028 | 81 | 60 | 2.0 | 6.0 | 0.00 | 0.00 | 0.00 | 77 | 1010.1 |
| 20260831195540 | 81 | 82 | 2.0 | 6.0 | 0.00 | 0.00 | 0.00 | 77 | 1010.0 |
| 20260831195042 | 81 | 86 | 2.0 | 4.0 | 0.00 | 0.00 | 0.00 | 77 | 1010.1 |
| 20260831194531 | 81 | 82 | 2.0 | 3.0 | 0.00 | 0.00 | 0.00 | 76 | 1010.2 |
| 20260831194041 | 81 | 95 | 1.0 | 4.0 | 0.00 | 0.00 | 0.00 | 76 | 1010.2 |
| 20260831193524 | 81 | 19 | 2.0 | 4.0 | 0.00 | 0.00 | 0.00 | 76 | 1010.2 |
| 20260831193048 | 81 | 91 | 2.0 | 4.0 | 0.00 | 0.00 | 0.00 | 76 | 1010.2 |
| 20260831192536 | 81 | 35 | 2.0 | 4.0 | 0.00 | 0.00 | 0.00 | 76 | 1010.3 |
| 20260831192018 | 81 | 10 | 2.0 | 4.0 | 0.00 | 0.00 | 0.00 | 76 | 1010.2 |
| 20260831191526 | 81 | 49 | 2.0 | 6.0 | 0.00 | 0.00 | 0.00 | 76 | 1010.2 |
| 20260831191035 | 81 | 51 | 3.0 | 6.0 | 0.00 | 0.00 | 0.00 | 76 | 1010.3 |
| 20260831190518 | 81 | 32 | 2.0 | 5.0 | 0.00 | 0.00 | 0.00 | 76 | 1010.3 |
| 20260831190037 | 81 | 65 | 2.0 | 5.0 | 0.00 | 0.00 | 0.00 | 76 | 1010.3 |
| 20260831185521 | 81 | 102 | 1.0 | 5.0 | 0.00 | 0.00 | 0.00 | 76 | 1010.2 |
| 20260831185051 | 81 | 106 | 2.0 | 4.0 | 0.00 | 0.00 | 0.00 | 76 | 1010.3 |
| 20260831184540 | 81 | 55 | 2.0 | 3.0 | 0.00 | 0.00 | 0.00 | 77 | 1010.3 |
| 20260831184022 | 81 | 101 | 0.0 | 2.0 | 0.00 | 0.00 | 0.00 | 77 | 1010.4 |
| 20260831183532 | 81 | 133 | 0.0 | 2.0 | 0.00 | 0.00 | 0.00 | 77 | 1010.4 |
| 20260831183039 | 81 | 103 | 0.0 | 2.0 | 0.00 | 0.00 | 0.00 | 77 | 1010.4 |
| 20260831182520 | 81 | 129 | 0.0 | 3.0 | 0.00 | 0.00 | 0.00 | 77 | 1010.3 |
| 20260831182050 | 81 | 103 | 0.0 | 3.0 | 0.00 | 0.00 | 0.00 | 77 | 1010.4 |
| 20260831181535 | 81 | 91 | 1.0 | 3.0 | 0.00 | 0.00 | 0.00 | 77 | 1010.2 |
| 20260831181017 | 81 | 101 | 0.0 | 3.0 | 0.00 | 0.00 | 0.00 | 77 | 1010.3 |
| 20260831180527 | 81 | 108 | 0.0 | 3.0 | 0.00 | 0.00 | 0.00 | 77 | 1010.3 |
| 20260831180034 | 81 | 132 | 1.0 | 1.0 | 0.00 | 0.00 | 0.00 | 77 | 1010.3 |
| 20260831175515 | 80 | 109 | 0.0 | 3.0 | 0.00 | 0.00 | 0.00 | 77 | 1010.3 |
| 20260831175036 | 80 | 103 | 1.0 | 3.0 | 0.00 | 0.00 | 0.00 | 78 | 1010.3 |
| 20260831174514 | 80 | 94 | 0.0 | 2.0 | 0.00 | 0.00 | 0.00 | 78 | 1010.5 |
| 20260831174020 | 80 | 92 | 1.0 | 2.0 | 0.00 | 0.00 | 0.00 | 78 | 1010.5 |
| 20260831173531 | 80 | 93 | 1.0 | 5.0 | 0.00 | 0.00 | 0.00 | 78 | 1010.5 |
| 20260831173038 | 80 | 91 | 1.0 | 5.0 | 0.00 | 0.00 | 0.00 | 78 | 1010.5 |
| 20260831172521 | 80 | 108 | 0.0 | 1.0 | 0.00 | 0.00 | 0.00 | 79 | 1010.5 |
| 20260831172031 | 80 | 105 | 0.0 | 2.0 | 0.00 | 0.00 | 0.00 | 79 | 1010.5 |
| 20260831171539 | 80 | 105 | 0.0 | 3.0 | 0.00 | 0.00 | 0.00 | 79 | 1010.5 |
| 20260831171020 | 80 | 105 | 1.0 | 3.0 | 0.00 | 0.00 | 0.00 | 79 | 1010.4 |
| 20260831170530 | 80 | 105 | 0.0 | 2.0 | 0.00 | 0.00 | 0.00 | 79 | 1010.5 |
| 20260831170032 | 80 | 134 | 0.0 | 1.0 | 0.00 | 0.00 | 0.00 | 79 | 1010.6 |
| 20260831165556 | 81 | 134 | 0.0 | 1.0 | 0.00 | 0.00 | 0.00 | 79 | 1010.5 |
| 20260831165036 | 81 | 134 | 0.0 | 1.0 | 0.00 | 0.00 | 0.00 | 79 | 1010.6 |
| 20260831164524 | 81 | 108 | 0.0 | 2.0 | 0.00 | 0.00 | 0.00 | 79 | 1010.6 |
| 20260831164034 | 81 | 113 | 1.0 | 2.0 | 0.00 | 0.00 | 0.00 | 78 | 1010.5 |
| 20260831163543 | 81 | 116 | 0.0 | 3.0 | 0.00 | 0.00 | 0.00 | 78 | 1010.5 |
| 20260831163022 | 81 | 89 | 1.0 | 3.0 | 0.00 | 0.00 | 0.00 | 78 | 1010.4 |
| 20260831162527 | 81 | 101 | 1.0 | 3.0 | 0.00 | 0.00 | 0.00 | 78 | 1010.5 |
| 20260831162034 | 81 | 72 | 1.0 | 3.0 | 0.00 | 0.00 | 0.00 | 76 | 1010.3 |
| 20260831161517 | 81 | 88 | 1.0 | 3.0 | 0.00 | 0.00 | 0.00 | 76 | 1010.3 |
| 20260831161025 | 81 | 104 | 1.0 | 2.0 | 0.00 | 0.00 | 0.00 | 77 | 1010.3 |
| 20260831160536 | 81 | 123 | 0.0 | 1.0 | 0.00 | 0.00 | 0.00 | 77 | 1010.5 |
| 20260831160037 | 81 | 124 | 0.0 | 3.0 | 0.00 | 0.00 | 0.00 | 78 | 1010.5 |
| 20260831155524 | 81 | 141 | 0.0 | 3.0 | 0.00 | 0.00 | 0.00 | 78 | 1010.6 |
| 20260831155053 | 81 | 142 | 1.0 | 2.0 | 0.00 | 0.00 | 0.00 | 79 | 1010.6 |
| 20260831154528 | 81 | 117 | 0.0 | 2.0 | 0.00 | 0.00 | 0.00 | 79 | 1010.7 |
| 20260831154059 | 81 | 115 | 1.0 | 3.0 | 0.00 | 0.00 | 0.00 | 79 | 1010.6 |
| 20260831153517 | 81 | 115 | 1.0 | 2.0 | 0.00 | 0.00 | 0.00 | 79 | 1010.8 |
| 20260831153023 | 81 | 107 | 0.0 | 2.0 | 0.00 | 0.00 | 0.00 | 79 | 1010.7 |
| 20260831152533 | 81 | 106 | 0.0 | 2.0 | 0.00 | 0.00 | 0.00 | 79 | 1010.7 |
| 20260831152014 | 81 | 106 | 0.0 | 4.0 | 0.00 | 0.00 | 0.00 | 79 | 1010.6 |
| 20260831151514 | 81 | 84 | 2.0 | 4.0 | 0.00 | 0.00 | 0.00 | 79 | 1010.4 |
| 20260831151037 | 81 | 105 | 1.0 | 3.0 | 0.00 | 0.00 | 0.00 | 78 | 1010.3 |
| 20260831150542 | 82 | 106 | 1.0 | 3.0 | 0.00 | 0.00 | 0.00 | 78 | 1010.3 |
| 20260831150029 | 82 | 85 | 1.0 | 3.0 | 0.00 | 0.00 | 0.00 | 78 | 1010.3 |
| 20260831145530 | 82 | 120 | 1.0 | 2.0 | 0.00 | 0.00 | 0.00 | 78 | 1010.4 |
| 20260831145039 | 82 | 105 | 1.0 | 3.0 | 0.00 | 0.00 | 0.00 | 78 | 1010.4 |
| 20260831144520 | 82 | 100 | 2.0 | 4.0 | 0.00 | 0.00 | 0.00 | 78 | 1010.2 |
| 20260831144020 | 82 | 84 | 1.0 | 3.0 | 0.00 | 0.00 | 0.00 | 77 | 1010.3 |
| 20260831143527 | 82 | 115 | 0.0 | 4.0 | 0.00 | 0.00 | 0.00 | 77 | 1010.2 |
| 20260831143031 | 82 | 116 | 1.0 | 4.0 | 0.00 | 0.00 | 0.00 | 77 | 1010.3 |
| 20260831142540 | 82 | 114 | 1.0 | 3.0 | 0.00 | 0.00 | 0.00 | 77 | 1010.2 |
| 20260831142043 | 82 | 108 | 1.0 | 3.0 | 0.00 | 0.00 | 0.00 | 78 | 1010.3 |
| 20260831141533 | 82 | 141 | 0.0 | 1.0 | 0.00 | 0.00 | 0.00 | 78 | 1010.3 |
| 20260831141015 | 82 | 141 | 0.0 | 1.0 | 0.00 | 0.00 | 0.00 | 78 | 1010.3 |
| 20260831140522 | 82 | 124 | 0.0 | 3.0 | 0.00 | 0.00 | 0.00 | 78 | 1010.2 |
| 20260831140019 | 82 | 189 | 1.0 | 3.0 | 0.00 | 0.00 | 0.00 | 79 | 1010.2 |
| 20260831135524 | 82 | 174 | 0.0 | 3.0 | 0.00 | 0.00 | 0.00 | 79 | 1010.3 |
| 20260831135033 | 82 | 173 | 0.0 | 3.0 | 0.00 | 0.00 | 0.00 | 79 | 1010.2 |
| 20260831134541 | 82 | 174 | 0.0 | 4.0 | 0.00 | 0.00 | 0.00 | 80 | 1010.1 |
| 20260831134024 | 82 | 323 | 1.0 | 4.0 | 0.00 | 0.00 | 0.00 | 80 | 1010.2 |
| 20260831133534 | 82 | 172 | 1.0 | 6.0 | 0.00 | 0.00 | 0.00 | 80 | 1010.0 |
| 20260831133040 | 82 | 67 | 2.0 | 6.0 | 0.00 | 0.00 | 0.00 | 80 | 1010.0 |
| 20260831132542 | 82 | 93 | 1.0 | 5.0 | 0.00 | 0.00 | 0.00 | 80 | 1010.0 |
| 20260831132026 | 82 | 183 | 2.0 | 5.0 | 0.00 | 0.00 | 0.00 | 81 | 1010.0 |
| 20260831131557 | 82 | 176 | 1.0 | 5.0 | 0.00 | 0.00 | 0.00 | 81 | 1010.0 |
| 20260831131018 | 82 | 184 | 2.0 | 5.0 | 0.00 | 0.00 | 0.00 | 81 | 1009.8 |
| 20260831130526 | 82 | 145 | 2.0 | 5.0 | 0.00 | 0.00 | 0.00 | 81 | 1009.9 |
| 20260831130034 | 82 | 180 | 1.0 | 4.0 | 0.00 | 0.00 | 0.00 | 80 | 1009.9 |
| 20260831125538 | 82 | 176 | 1.0 | 7.0 | 0.00 | 0.00 | 0.00 | 80 | 1009.7 |
| 20260831125018 | 82 | 173 | 2.0 | 7.0 | 0.00 | 0.00 | 0.00 | 80 | 1009.7 |
| 20260831124526 | 82 | 214 | 2.0 | 6.0 | 0.00 | 0.00 | 0.00 | 80 | 1009.7 |
| 20260831124033 | 82 | 152 | 1.0 | 6.0 | 0.00 | 0.00 | 0.00 | 80 | 1009.7 |
| 20260831123542 | 82 | 148 | 2.0 | 6.0 | 0.00 | 0.00 | 0.00 | 80 | 1009.7 |
| 20260831123023 | 82 | 153 | 2.0 | 5.0 | 0.00 | 0.00 | 0.00 | 80 | 1009.7 |
| 20260831122531 | 82 | 263 | 1.0 | 3.0 | 0.00 | 0.00 | 0.00 | 80 | 1009.7 |
| 20260831122041 | 82 | 101 | 1.0 | 5.0 | 0.00 | 0.00 | 0.00 | 80 | 1009.8 |
| 20260831121522 | 82 | 217 | 1.0 | 7.0 | 0.00 | 0.00 | 0.00 | 80 | 1009.8 |
| 20260831121023 | 82 | 174 | 1.0 | 8.0 | 0.00 | 0.00 | 0.00 | 80 | 1009.8 |
| 20260831120529 | 82 | 162 | 3.0 | 8.0 | 0.00 | 0.00 | 0.00 | 80 | 1009.9 |
| 20260831120036 | 82 | 189 | 1.0 | 6.0 | 0.00 | 0.00 | 0.00 | 79 | 1009.9 |
| 20260831115518 | 82 | 144 | 1.0 | 6.0 | 0.00 | 0.00 | 0.00 | 79 | 1009.9 |
| 20260831115027 | 82 | 321 | 2.0 | 8.0 | 0.00 | 0.00 | 0.00 | 79 | 1009.9 |
| 20260831114538 | 83 | 158 | 1.0 | 9.0 | 0.00 | 0.00 | 0.00 | 78 | 1009.8 |
| 20260831114021 | 83 | 154 | 2.0 | 9.0 | 0.00 | 0.00 | 0.00 | 78 | 1009.9 |
| 20260831113533 | 83 | 158 | 2.0 | 8.0 | 0.00 | 0.00 | 0.00 | 77 | 1009.9 |
| 20260831113041 | 83 | 124 | 1.0 | 8.0 | 0.00 | 0.00 | 0.00 | 76 | 1009.8 |
| 20260831112539 | 83 | 303 | 3.0 | 9.0 | 0.00 | 0.00 | 0.00 | 76 | 1009.6 |
| 20260831112026 | 83 | 192 | 3.0 | 10.0 | 0.00 | 0.00 | 0.00 | 75 | 1009.6 |
| 20260831111536 | 83 | 227 | 4.0 | 10.0 | 0.00 | 0.00 | 0.00 | 74 | 1009.5 |
| 20260831111109 | 83 | 140 | 2.0 | 6.0 | 0.00 | 0.00 | 0.00 | 74 | 1009.5 |
| 20260831110523 | 83 | 115 | 3.0 | 6.0 | 0.00 | 0.00 | 0.00 | 73 | 1009.3 |
| 20260831105536 | 84 | 135 | 0.0 | 8.0 | 0.00 | 0.00 | 0.00 | 71 | 1009.4 |
| 20260831105025 | 84 | 179 | 1.0 | 7.0 | 0.00 | 0.00 | 0.00 | 70 | 1009.4 |
| 20260831104516 | 84 | 179 | 2.0 | 9.0 | 0.00 | 0.00 | 0.00 | 69 | 1009.2 |
| 20260831104021 | 84 | 130 | 1.0 | 9.0 | 0.00 | 0.00 | 0.00 | 69 | 1009.2 |
| 20260831103530 | 84 | 245 | 2.0 | 6.0 | 0.00 | 0.00 | 0.00 | 68 | 1009.1 |
| 20260831103036 | 84 | 155 | 3.0 | 6.0 | 0.00 | 0.00 | 0.00 | 67 | 1009.0 |
| 20260831102541 | 84 | 184 | 3.0 | 6.0 | 0.00 | 0.00 | 0.00 | 67 | 1008.9 |
| 20260831102048 | 85 | 160 | 2.0 | 7.0 | 0.00 | 0.00 | 0.00 | 66 | 1008.8 |
| 20260831101538 | 85 | 266 | 3.0 | 7.0 | 0.00 | 0.00 | 0.00 | 66 | 1008.8 |
| 20260831101019 | 85 | 243 | 2.0 | 6.0 | 0.00 | 0.00 | 0.00 | 66 | 1008.5 |
| 20260831100525 | 85 | 250 | 2.0 | 7.0 | 0.00 | 0.00 | 0.00 | 66 | 1008.6 |
| 20260831100033 | 85 | 38 | 2.0 | 7.0 | 0.00 | 0.00 | 0.00 | 66 | 1008.5 |
| 20260831095541 | 85 | 115 | 1.0 | 13.0 | 0.00 | 0.00 | 0.00 | 66 | 1008.5 |
| 20260831095022 | 85 | 183 | 4.0 | 13.0 | 0.00 | 0.00 | 0.00 | 66 | 1008.4 |
| 20260831094530 | 85 | 191 | 2.0 | 6.0 | 0.00 | 0.00 | 0.00 | 67 | 1008.5 |
| 20260831094040 | 85 | 130 | 1.0 | 8.0 | 0.00 | 0.00 | 0.00 | 68 | 1008.4 |
| 20260831093523 | 85 | 131 | 3.0 | 8.0 | 0.00 | 0.00 | 0.00 | 68 | 1008.5 |
| 20260831093030 | 85 | 302 | 2.0 | 6.0 | 0.00 | 0.00 | 0.00 | 68 | 1008.5 |
| 20260831092535 | 85 | 208 | 2.0 | 6.0 | 0.00 | 0.00 | 0.00 | 68 | 1008.5 |
| 20260831092116 | 85 | 21 | 2.0 | 7.0 | 0.00 | 0.00 | 0.00 | 68 | 1008.5 |
| 20260831091541 | 86 | 307 | 2.0 | 7.0 | 0.00 | 0.00 | 0.00 | 68 | 1008.5 |
| 20260831091021 | 86 | 189 | 2.0 | 8.0 | 0.00 | 0.00 | 0.00 | 69 | 1008.4 |
| 20260831090531 | 86 | 331 | 3.0 | 8.0 | 0.00 | 0.00 | 0.00 | 68 | 1008.3 |
| 20260831090100 | 86 | 207 | 1.0 | 6.0 | 0.00 | 0.00 | 0.00 | 67 | 1008.3 |
| 20260831085521 | 86 | 311 | 2.0 | 8.0 | 0.00 | 0.00 | 0.00 | 67 | 1008.4 |
| 20260831085024 | 86 | 177 | 3.0 | 8.0 | 0.00 | 0.00 | 0.00 | 68 | 1008.4 |
| 20260831084555 | 86 | 176 | 2.0 | 6.0 | 0.00 | 0.00 | 0.00 | 67 | 1008.4 |
| 20260831084017 | 86 | 229 | 2.0 | 6.0 | 0.00 | 0.00 | 0.00 | 67 | 1008.4 |
| 20260831083527 | 86 | 224 | 2.0 | 6.0 | 0.00 | 0.00 | 0.00 | 67 | 1008.4 |
| 20260831083034 | 86 | 208 | 2.0 | 8.0 | 0.00 | 0.00 | 0.00 | 68 | 1008.4 |
| 20260831082518 | 87 | 98 | 2.0 | 7.0 | 0.00 | 0.00 | 0.00 | 67 | 1008.4 |
| 20260831082049 | 87 | 236 | 3.0 | 6.0 | 0.00 | 0.00 | 0.00 | 68 | 1008.4 |
| 20260831081516 | 86 | 191 | 3.0 | 7.0 | 0.00 | 0.00 | 0.00 | 69 | 1008.5 |
| 20260831081026 | 87 | 297 | 2.0 | 9.0 | 0.00 | 0.00 | 0.00 | 70 | 1008.4 |
| 20260831080537 | 87 | 231 | 3.0 | 9.0 | 0.00 | 0.00 | 0.00 | 68 | 1008.4 |
| 20260831080039 | 87 | 113 | 2.0 | 6.0 | 0.00 | 0.00 | 0.00 | 70 | 1008.3 |
| 20260831075521 | 87 | 133 | 1.0 | 8.0 | 0.00 | 0.00 | 0.00 | 70 | 1008.2 |
| 20260831075030 | 87 | 165 | 2.0 | 9.0 | 0.00 | 0.00 | 0.00 | 70 | 1008.3 |
| 20260831074540 | 88 | 122 | 3.0 | 9.0 | 0.00 | 0.00 | 0.00 | 70 | 1008.4 |
| 20260831074022 | 88 | 185 | 4.0 | 9.0 | 0.00 | 0.00 | 0.00 | 69 | 1008.1 |
| 20260831073530 | 88 | 318 | 3.0 | 7.0 | 0.00 | 0.00 | 0.00 | 70 | 1008.2 |
| 20260831073035 | 88 | 115 | 4.0 | 7.0 | 0.00 | 0.00 | 0.00 | 69 | 1008.1 |
| 20260831072518 | 89 | 129 | 2.0 | 8.0 | 0.00 | 0.00 | 0.00 | 68 | 1008.0 |
| 20260831072028 | 89 | 107 | 3.0 | 9.0 | 0.00 | 0.00 | 0.00 | 67 | 1008.0 |
| 20260831071538 | 89 | 154 | 3.0 | 9.0 | 0.00 | 0.00 | 0.00 | 68 | 1008.0 |
| 20260831071019 | 89 | 136 | 4.0 | 9.0 | 0.00 | 0.00 | 0.00 | 68 | 1008.0 |
| 20260831070529 | 89 | 119 | 4.0 | 10.0 | 0.00 | 0.00 | 0.00 | 66 | 1007.9 |
| 20260831070016 | 89 | 100 | 3.0 | 11.0 | 0.00 | 0.00 | 0.00 | 67 | 1007.9 |
| 20260831065541 | 89 | 67 | 2.0 | 11.0 | 0.00 | 0.00 | 0.00 | 68 | 1007.8 |
| 20260831065024 | 89 | 63 | 3.0 | 10.0 | 0.00 | 0.00 | 0.00 | 66 | 1007.7 |
| 20260831064533 | 89 | 178 | 3.0 | 11.0 | 0.00 | 0.00 | 0.00 | 67 | 1007.9 |
| 20260831064042 | 89 | 198 | 3.0 | 11.0 | 0.00 | 0.00 | 0.00 | 68 | 1008.0 |
| 20260831063524 | 89 | 25 | 3.0 | 12.0 | 0.00 | 0.00 | 0.00 | 67 | 1008.0 |
| 20260831063031 | 90 | 96 | 3.0 | 12.0 | 0.00 | 0.00 | 0.00 | 67 | 1008.0 |
| 20260831062602 | 90 | 73 | 2.0 | 9.0 | 0.00 | 0.00 | 0.00 | 68 | 1008.0 |
| 20260831062019 | 89 | 77 | 2.0 | 9.0 | 0.00 | 0.00 | 0.00 | 68 | 1008.1 |
| 20260831061526 | 90 | 46 | 3.0 | 8.0 | 0.00 | 0.00 | 0.00 | 66 | 1008.2 |
| 20260831061037 | 89 | 80 | 3.0 | 8.0 | 0.00 | 0.00 | 0.00 | 66 | 1008.2 |
| 20260831060518 | 90 | 257 | 2.0 | 8.0 | 0.00 | 0.00 | 0.00 | 66 | 1008.2 |
| 20260831060024 | 90 | 290 | 2.0 | 8.0 | 0.00 | 0.00 | 0.00 | 66 | 1008.3 |
| 20260831055533 | 90 | 289 | 3.0 | 9.0 | 0.00 | 0.00 | 0.00 | 65 | 1008.2 |
| 20260831055103 | 89 | 64 | 4.0 | 9.0 | 0.00 | 0.00 | 0.00 | 67 | 1008.1 |
| 20260831054522 | 89 | 105 | 3.0 | 10.0 | 0.00 | 0.00 | 0.00 | 67 | 1008.3 |
| 20260831054027 | 89 | 63 | 3.0 | 9.0 | 0.00 | 0.00 | 0.00 | 68 | 1008.3 |
| 20260831053536 | 90 | 159 | 2.0 | 9.0 | 0.00 | 0.00 | 0.00 | 68 | 1008.3 |
| 20260831053014 | 89 | 148 | 2.0 | 9.0 | 0.00 | 0.00 | 0.00 | 68 | 1008.4 |
| 20260831052524 | 89 | 82 | 4.0 | 10.0 | 0.00 | 0.00 | 0.00 | 68 | 1008.4 |
| 20260831052054 | 89 | 53 | 5.0 | 11.0 | 0.00 | 0.00 | 0.00 | 67 | 1008.3 |
| 20260831051541 | 89 | 167 | 4.0 | 11.0 | 0.00 | 0.00 | 0.00 | 68 | 1008.4 |
| 20260831051022 | 89 | 153 | 3.0 | 12.0 | 0.00 | 0.00 | 0.00 | 68 | 1008.5 |
| 20260831050528 | 89 | 16 | 4.0 | 13.0 | 0.00 | 0.00 | 0.00 | 68 | 1008.5 |
| 20260831050034 | 89 | 79 | 5.0 | 13.0 | 0.00 | 0.00 | 0.00 | 68 | 1008.4 |
| 20260831045541 | 89 | 125 | 2.0 | 9.0 | 0.00 | 0.00 | 0.00 | 69 | 1008.7 |
| 20260831045042 | 89 | 44 | 5.0 | 13.0 | 0.00 | 0.00 | 0.00 | 69 | 1008.6 |
| 20260831044551 | 89 | 42 | 5.0 | 13.0 | 0.00 | 0.00 | 0.00 | 69 | 1008.8 |
| 20260831044039 | 89 | 105 | 3.0 | 10.0 | 0.00 | 0.00 | 0.00 | 69 | 1008.8 |
| 20260831043520 | 89 | 39 | 5.0 | 10.0 | 0.00 | 0.00 | 0.00 | 68 | 1008.7 |
| 20260831043027 | 88 | 21 | 3.0 | 11.0 | 0.00 | 0.00 | 0.00 | 69 | 1008.7 |
| 20260831042522 | 88 | 31 | 6.0 | 14.0 | 0.00 | 0.00 | 0.00 | 69 | 1008.6 |
| 20260831042033 | 88 | 47 | 7.0 | 14.0 | 0.00 | 0.00 | 0.00 | 68 | 1008.6 |
| 20260831041521 | 89 | 106 | 5.0 | 15.0 | 0.00 | 0.00 | 0.00 | 69 | 1008.6 |
| 20260831041123 | 89 | 53 | 6.0 | 15.0 | 0.00 | 0.00 | 0.00 | 70 | 1008.7 |
| 20260831040526 | 89 | 140 | 4.0 | 12.0 | 0.00 | 0.00 | 0.00 | 70 | 1008.7 |
| 20260831040050 | 89 | 120 | 5.0 | 12.0 | 0.00 | 0.00 | 0.00 | 69 | 1008.6 |
| 20260831035537 | 88 | 140 | 4.0 | 11.0 | 0.00 | 0.00 | 0.00 | 70 | 1008.8 |
| 20260831035019 | 88 | 74 | 4.0 | 11.0 | 0.00 | 0.00 | 0.00 | 71 | 1008.7 |